User: anonymous
Location: Caltech
(34.1382°N, 118.1253°W)
Time: 01:03:43
(UTC-07:00)
Language:

Iridium 72 - Orbit

View from above orbital plane
View from above orbital plane
View from above satellite
View from above satellite

Ground track
Ground track

The orbit data is extracted from the following two-line orbital elements,

1 25343U 98032B   14203.30468301  .00000233  00000-0  76029-4 0  8809
2 25343 086.3990 307.3091 0002299 111.0444 301.1651 14.34214309847045
Epoch (UTC): 22 July 2014 07:18:44
Eccentricity: 0.0002299
inclination: 86.3990°
perigee height: 776 km
apogee height: 779 km
right ascension of ascending node: 307.3091°
argument of perigee: 111.0444°
revolutions per day: 14.34214309
mean anomaly at epoch: 301.1651°
orbit number at epoch: 84704

The dashed part of the orbit path shows where the satellite is in the earth's shadow,  

DLR